Time,TemperatureF,DewpointF,PressureIn,WindDirection,WindDirectionDegrees,WindSpeedMPH,WindSpeedGustMPH,Humidity,HourlyPrecipIn,Conditions,Clouds,dailyrainin,SolarRadiationWatts/m^2,SoftwareType,DateUTC
2013-08-29 00:01:00,65.5,62.8,29.93,ESE,115,0.1,0.0,91,0.00,FEW,,0.00,0.0,WeatherDisplay:10.37,2013-08-29 04:01:00,
2013-08-29 00:02:00,65.5,62.8,29.93,ESE,115,0.0,0.0,91,0.00,FEW,,0.00,0.0,WeatherDisplay:10.37,2013-08-29 04:02:00,
2013-08-29 00:07:00,65.5,62.8,29.92,ESE,115,0.0,0.0,91,0.00,FEW,,0.00,0.0,WeatherDisplay:10.37,2013-08-29 04:07:00,
2013-08-29 00:12:00,65.4,62.7,29.92,ESE,115,0.9,3.5,91,0.00,FEW,,0.00,0.0,WeatherDisplay:10.37,2013-08-29 04:12:00,
2013-08-29 00:17:00,65.5,62.8,29.92,ESE,115,0.0,0.0,91,0.00,FEW,,0.00,0.0,WeatherDisplay:10.37,2013-08-29 04:17:00,
2013-08-29 00:22:00,65.4,62.7,29.92,ESE,118,1.2,4.6,91,0.00,FEW,,0.00,0.0,WeatherDisplay:10.37,2013-08-29 04:22:00,
2013-08-29 00:27:00,65.4,62.7,29.93,ESE,118,0.0,0.0,91,0.00,FEW,,0.00,0.0,WeatherDisplay:10.37,2013-08-29 04:27:00,
2013-08-29 00:32:00,65.4,62.7,29.93,ESE,118,0.0,0.0,91,0.00,FEW,,0.00,0.0,WeatherDisplay:10.37,2013-08-29 04:32:00,
2013-08-29 00:37:00,65.2,62.2,29.93,ESE,118,0.5,2.3,90,0.00,FEW,,0.00,0.0,WeatherDisplay:10.37,2013-08-29 04:37:00,
2013-08-29 00:42:00,65.1,62.4,29.93,ESE,118,0.0,0.0,91,0.00,FEW,,0.00,0.0,WeatherDisplay:10.37,2013-08-29 04:42:00,
2013-08-29 00:47:00,65.0,62.3,29.94,ESE,118,0.0,0.0,91,0.00,FEW,,0.00,0.0,WeatherDisplay:10.37,2013-08-29 04:47:00,
2013-08-29 00:52:00,64.9,62.2,29.94,ESE,118,0.1,1.2,91,0.00,FEW,,0.00,0.0,WeatherDisplay:10.37,2013-08-29 04:52:00,
2013-08-29 00:57:00,64.9,62.2,29.94,ESE,118,0.3,2.3,91,0.00,FEW,,0.00,0.0,WeatherDisplay:10.37,2013-08-29 04:57:00,
2013-08-29 01:02:00,64.7,62.0,29.95,ESE,118,0.0,1.2,91,0.00,FEW,,0.00,0.0,WeatherDisplay:10.37,2013-08-29 05:02:00,
2013-08-29 01:07:00,64.9,62.5,29.95,East,92,4.4,5.8,92,0.00,FEW,,0.00,0.0,WeatherDisplay:10.37,2013-08-29 05:07:00,
2013-08-29 01:12:00,65.1,62.7,29.95,East,90,2.5,3.5,92,0.00,FEW,,0.00,0.0,WeatherDisplay:10.37,2013-08-29 05:12:00,
2013-08-29 01:17:00,65.3,62.9,29.95,East,90,0.0,0.0,92,0.00,FEW,,0.00,0.0,WeatherDisplay:10.37,2013-08-29 05:17:00,
2013-08-29 01:22:00,65.5,63.1,29.94,East,90,0.0,0.0,92,0.00,FEW,,0.00,0.0,WeatherDisplay:10.37,2013-08-29 05:22:00,
2013-08-29 01:27:00,65.7,63.3,29.94,ESE,116,0.0,3.5,92,0.00,FEW,,0.00,0.0,WeatherDisplay:10.37,2013-08-29 05:27:00,
2013-08-29 01:32:00,65.8,63.4,29.94,ESE,116,0.9,2.3,92,0.00,FEW,,0.00,0.0,WeatherDisplay:10.37,2013-08-29 05:32:00,
2013-08-29 01:37:00,65.8,63.1,29.93,ESE,116,0.2,2.3,91,0.00,FEW,,0.00,0.0,WeatherDisplay:10.37,2013-08-29 05:37:00,
2013-08-29 01:43:00,65.8,63.1,29.94,ESE,116,1.1,2.0,91,0.00,FEW,,0.00,0.0,WeatherDisplay:10.37,2013-08-29 05:43:00,
2013-08-29 01:48:00,65.7,62.7,29.93,ESE,110,1.0,5.8,90,0.00,FEW,,0.00,0.0,WeatherDisplay:10.37,2013-08-29 05:48:00,
2013-08-29 01:53:00,65.7,62.4,29.94,ESE,105,2.6,3.5,89,0.00,FEW,,0.00,0.0,WeatherDisplay:10.37,2013-08-29 05:53:00,
2013-08-29 01:58:00,66.0,62.7,29.93,East,91,2.6,3.5,89,0.00,FEW,,0.00,0.0,WeatherDisplay:10.37,2013-08-29 05:58:00,
2013-08-29 02:03:00,66.6,61.9,29.93,East,96,3.5,5.8,85,0.00,FEW,,0.00,0.0,WeatherDisplay:10.37,2013-08-29 06:03:00,
2013-08-29 02:08:00,67.4,62.1,29.93,ESE,108,3.3,5.8,83,0.00,FEW,,0.00,0.0,WeatherDisplay:10.37,2013-08-29 06:08:00,
2013-08-29 02:13:00,67.9,61.9,29.92,SE,126,7.3,15.0,81,0.00,FEW,,0.00,0.0,WeatherDisplay:10.37,2013-08-29 06:13:00,
2013-08-29 02:18:00,68.5,61.7,29.92,ESE,117,2.0,5.8,79,0.00,FEW,,0.00,0.0,WeatherDisplay:10.37,2013-08-29 06:18:00,
2013-08-29 02:23:00,68.7,61.6,29.92,ESE,117,1.0,4.6,78,0.00,FEW,,0.00,0.0,WeatherDisplay:10.37,2013-08-29 06:23:00,
2013-08-29 02:28:00,68.6,61.5,29.92,ESE,119,2.8,3.5,78,0.00,FEW,,0.00,0.0,WeatherDisplay:10.37,2013-08-29 06:28:00,
2013-08-29 02:33:00,68.4,61.3,29.92,ESE,119,0.0,0.0,78,0.00,FEW,,0.00,0.0,WeatherDisplay:10.37,2013-08-29 06:33:00,
2013-08-29 02:38:00,68.1,61.0,29.92,ESE,119,0.0,0.0,78,0.00,FEW,,0.00,0.0,WeatherDisplay:10.37,2013-08-29 06:38:00,
2013-08-29 02:43:00,67.9,60.8,29.93,ESE,119,1.6,3.5,78,0.00,FEW,,0.00,0.0,WeatherDisplay:10.37,2013-08-29 06:43:00,
2013-08-29 02:48:00,68.0,60.9,29.92,ESE,119,2.1,3.5,78,0.00,FEW,,0.00,0.0,WeatherDisplay:10.37,2013-08-29 06:48:00,
2013-08-29 02:53:00,67.9,60.8,29.93,South,185,3.2,6.9,78,0.00,FEW,,0.00,0.0,WeatherDisplay:10.37,2013-08-29 06:53:00,
2013-08-29 02:58:00,67.6,60.5,29.93,South,181,0.7,2.3,78,0.00,FEW,,0.00,0.0,WeatherDisplay:10.37,2013-08-29 06:58:00,
2013-08-29 03:03:00,67.5,60.4,29.93,SE,134,0.0,0.0,78,0.00,FEW,,0.00,0.0,WeatherDisplay:10.37,2013-08-29 07:03:00,
2013-08-29 03:08:00,67.4,61.0,29.93,SE,134,0.8,2.3,80,0.00,FEW,,0.00,0.0,WeatherDisplay:10.37,2013-08-29 07:08:00,
2013-08-29 03:13:00,67.3,59.8,29.93,SE,134,2.4,4.0,77,0.00,FEW,,0.00,0.0,WeatherDisplay:10.37,2013-08-29 07:13:00,
2013-08-29 03:18:00,67.6,61.6,29.94,SE,134,0.0,0.0,81,0.00,FEW,,0.00,0.0,WeatherDisplay:10.37,2013-08-29 07:18:00,
2013-08-29 03:23:00,67.3,60.9,29.94,SE,134,0.0,0.0,80,0.00,FEW,,0.00,0.0,WeatherDisplay:10.37,2013-08-29 07:23:00,
2013-08-29 03:28:00,66.6,60.6,29.93,SE,134,0.0,0.0,81,0.00,FEW,,0.00,0.0,WeatherDisplay:10.37,2013-08-29 07:28:00,
2013-08-29 03:33:00,66.1,60.8,29.93,SE,134,0.0,0.0,83,0.00,FEW,,0.00,0.0,WeatherDisplay:10.37,2013-08-29 07:33:00,
2013-08-29 03:38:00,65.8,61.2,29.93,SE,134,0.0,1.2,85,0.00,FEW,,0.00,0.0,WeatherDisplay:10.37,2013-08-29 07:38:00,
2013-08-29 03:43:00,65.7,61.4,29.94,SE,134,0.0,0.0,86,0.00,FEW,,0.00,0.0,WeatherDisplay:10.37,2013-08-29 07:43:00,
2013-08-29 03:48:00,65.4,60.8,29.94,SE,134,0.0,0.0,85,0.00,FEW,,0.00,0.0,WeatherDisplay:10.37,2013-08-29 07:48:00,
2013-08-29 03:53:00,65.1,60.5,29.94,SE,134,0.0,0.0,85,0.00,FEW,,0.00,0.0,WeatherDisplay:10.37,2013-08-29 07:53:00,
2013-08-29 03:58:00,64.9,60.9,29.94,SE,134,0.0,0.0,87,0.00,FEW,,0.00,0.0,WeatherDisplay:10.37,2013-08-29 07:58:00,
2013-08-29 04:03:00,64.7,61.1,29.94,SE,134,0.0,0.0,88,0.00,FEW,,0.00,0.0,WeatherDisplay:10.37,2013-08-29 08:03:00,
2013-08-29 04:08:00,64.6,61.3,29.94,SE,134,0.0,0.0,89,0.00,FEW,,0.00,0.0,WeatherDisplay:10.37,2013-08-29 08:08:00,
2013-08-29 04:13:00,64.3,60.7,29.94,SE,134,0.0,0.0,88,0.00,FEW,,0.00,0.0,WeatherDisplay:10.37,2013-08-29 08:13:00,
2013-08-29 04:18:00,64.0,60.7,29.94,SE,134,0.0,0.0,89,0.00,FEW,,0.00,0.0,WeatherDisplay:10.37,2013-08-29 08:18:00,
2013-08-29 04:23:00,63.9,60.9,29.94,SE,134,0.0,0.0,90,0.00,FEW,,0.00,0.0,WeatherDisplay:10.37,2013-08-29 08:23:00,
2013-08-29 04:28:00,63.9,60.9,29.95,SE,134,0.0,0.0,90,0.00,FEW,,0.00,0.0,WeatherDisplay:10.37,2013-08-29 08:28:00,
2013-08-29 04:33:00,63.7,60.4,29.94,SE,134,0.0,0.0,89,0.00,FEW,,0.00,0.0,WeatherDisplay:10.37,2013-08-29 08:33:00,
2013-08-29 04:38:00,63.5,60.2,29.95,SE,134,0.0,0.0,89,0.00,FEW,,0.00,0.0,WeatherDisplay:10.37,2013-08-29 08:38:00,
2013-08-29 04:43:00,63.5,60.5,29.95,SE,134,0.0,0.0,90,0.00,FEW,,0.00,0.0,WeatherDisplay:10.37,2013-08-29 08:43:00,
2013-08-29 04:48:00,63.2,59.9,29.95,SE,134,0.0,0.0,89,0.00,FEW,,0.00,0.0,WeatherDisplay:10.37,2013-08-29 08:48:00,
2013-08-29 04:53:00,62.9,59.9,29.96,SE,134,0.0,0.0,90,0.00,FEW,,0.00,0.0,WeatherDisplay:10.37,2013-08-29 08:53:00,
2013-08-29 04:59:00,62.8,59.8,29.96,SE,134,0.0,0.0,90,0.00,FEW,,0.00,0.0,WeatherDisplay:10.37,2013-08-29 08:59:00,
2013-08-29 05:04:00,62.6,59.6,29.96,SE,134,0.0,1.2,90,0.00,FEW,,0.00,0.0,WeatherDisplay:10.37,2013-08-29 09:04:00,
2013-08-29 05:09:00,62.4,59.4,29.96,SE,134,0.0,0.0,90,0.00,FEW,,0.00,0.0,WeatherDisplay:10.37,2013-08-29 09:09:00,
2013-08-29 05:14:00,62.2,59.2,29.96,SE,134,0.0,0.0,90,0.00,FEW,,0.00,0.0,WeatherDisplay:10.37,2013-08-29 09:14:00,
2013-08-29 05:19:00,62.0,59.0,29.96,SE,134,0.0,1.2,90,0.00,FEW,,0.00,0.0,WeatherDisplay:10.37,2013-08-29 09:19:00,
2013-08-29 05:24:00,61.9,58.9,29.96,SE,134,0.0,0.0,90,0.00,FEW,,0.00,0.0,WeatherDisplay:10.37,2013-08-29 09:24:00,
2013-08-29 05:29:00,61.8,58.8,29.96,SE,134,0.0,1.2,90,0.00,FEW,,0.00,0.0,WeatherDisplay:10.37,2013-08-29 09:29:00,
2013-08-29 05:34:00,61.4,58.1,29.97,SE,134,0.1,2.3,89,0.00,FEW,,0.00,0.0,WeatherDisplay:10.37,2013-08-29 09:34:00,
2013-08-29 05:39:00,61.1,58.1,29.97,SE,134,0.0,1.2,90,0.00,FEW,,0.00,0.0,WeatherDisplay:10.37,2013-08-29 09:39:00,
2013-08-29 05:44:00,61.1,58.5,29.97,SE,134,0.0,0.0,91,0.00,FEW,,0.00,0.0,WeatherDisplay:10.37,2013-08-29 09:44:00,
2013-08-29 05:49:00,61.1,58.5,29.97,SE,134,0.0,0.0,91,0.00,FEW,,0.00,0.0,WeatherDisplay:10.37,2013-08-29 09:49:00,
2013-08-29 05:54:00,60.9,58.3,29.97,SE,134,0.0,0.0,91,0.00,FEW,,0.00,0.0,WeatherDisplay:10.37,2013-08-29 09:54:00,
2013-08-29 05:59:00,60.8,58.2,29.98,SE,134,0.0,0.0,91,0.00,FEW,,0.00,0.0,WeatherDisplay:10.37,2013-08-29 09:59:00,
2013-08-29 06:04:00,60.7,58.1,29.97,SE,134,0.0,0.0,91,0.00,FEW,,0.00,0.0,WeatherDisplay:10.37,2013-08-29 10:04:00,
2013-08-29 06:09:00,60.6,58.0,29.98,SE,134,0.0,0.0,91,0.00,FEW,,0.00,0.0,WeatherDisplay:10.37,2013-08-29 10:09:00,
2013-08-29 06:14:00,60.6,58.3,29.98,SE,134,0.0,0.0,92,0.00,FEW,,0.00,0.0,WeatherDisplay:10.37,2013-08-29 10:14:00,
2013-08-29 06:19:00,60.6,58.3,29.98,SE,134,0.0,0.0,92,0.00,FEW,,0.00,0.0,WeatherDisplay:10.37,2013-08-29 10:19:00,
2013-08-29 06:24:00,60.5,57.9,29.98,SE,134,0.0,0.0,91,0.00,FEW,,0.00,7.9,WeatherDisplay:10.37,2013-08-29 10:24:00,
2013-08-29 06:29:00,60.4,58.1,29.99,SE,134,0.0,0.0,92,0.00,FEW,,0.00,10.2,WeatherDisplay:10.37,2013-08-29 10:29:00,
2013-08-29 06:34:00,60.4,57.8,29.99,SE,134,0.0,0.0,91,0.00,BKN,,0.00,18.1,WeatherDisplay:10.37,2013-08-29 10:34:00,
2013-08-29 06:40:00,60.5,58.2,29.99,SE,134,0.0,1.2,92,0.00,BKN,,0.00,26.0,WeatherDisplay:10.37,2013-08-29 10:40:00,
2013-08-29 06:45:00,60.7,58.4,29.99,SE,134,0.0,0.0,92,0.00,BKN,,0.00,37.3,WeatherDisplay:10.37,2013-08-29 10:45:00,
2013-08-29 06:50:00,60.9,58.6,29.99,SE,134,0.0,1.2,92,0.00,BKN,,0.00,45.2,WeatherDisplay:10.37,2013-08-29 10:50:00,
2013-08-29 06:55:00,61.2,58.9,29.99,SE,134,0.0,0.0,92,0.00,BKN,,0.00,59.9,WeatherDisplay:10.37,2013-08-29 10:55:00,
2013-08-29 07:00:00,61.6,59.3,30.00,SE,134,1.0,1.2,92,0.00,SCT,,0.00,71.2,WeatherDisplay:10.37,2013-08-29 11:00:00,
2013-08-29 07:05:00,62.0,59.6,30.00,SE,134,1.3,3.5,92,0.00,SCT,,0.00,85.9,WeatherDisplay:10.37,2013-08-29 11:05:00,
2013-08-29 07:10:00,62.4,60.0,30.00,SE,133,2.4,3.5,92,0.00,SCT,,0.00,101.7,WeatherDisplay:10.37,2013-08-29 11:10:00,
2013-08-29 07:15:00,62.8,60.1,30.00,SE,133,1.3,3.5,91,0.00,SCT,,0.00,117.5,WeatherDisplay:10.37,2013-08-29 11:15:00,
2013-08-29 07:20:00,63.3,60.3,30.00,SE,132,3.0,4.0,90,0.00,SCT,,0.00,133.3,WeatherDisplay:10.37,2013-08-29 11:20:00,
2013-08-29 07:25:00,63.8,60.8,30.00,SE,132,2.0,3.5,90,0.00,SCT,,0.00,149.2,WeatherDisplay:10.37,2013-08-29 11:25:00,
2013-08-29 07:30:00,64.3,60.7,30.00,SE,132,2.9,4.6,88,0.00,SCT,,0.00,162.7,WeatherDisplay:10.37,2013-08-29 11:30:00,
2013-08-29 07:35:00,64.9,61.3,30.00,SE,132,1.5,3.5,88,0.00,SCT,,0.00,176.3,WeatherDisplay:10.37,2013-08-29 11:35:00,
2013-08-29 07:40:00,65.5,61.5,30.01,SE,132,1.4,2.3,87,0.00,SCT,,0.00,115.3,WeatherDisplay:10.37,2013-08-29 11:40:00,
2013-08-29 07:45:00,65.9,61.6,30.01,SE,132,0.8,2.3,86,0.00,FEW,,0.00,228.3,WeatherDisplay:10.37,2013-08-29 11:45:00,
2013-08-29 07:50:00,66.3,61.7,30.01,SE,132,0.8,2.3,85,0.00,SCT,,0.00,125.4,WeatherDisplay:10.37,2013-08-29 11:50:00,
2013-08-29 07:55:00,66.6,62.3,30.01,SE,132,0.0,1.2,86,0.00,FEW,,0.00,241.8,WeatherDisplay:10.37,2013-08-29 11:55:00,
2013-08-29 08:00:00,67.0,62.3,30.02,SE,132,0.0,0.0,85,0.00,FEW,,0.00,293.8,WeatherDisplay:10.37,2013-08-29 12:00:00,
2013-08-29 08:05:00,67.5,62.5,30.02,SE,132,0.3,1.2,84,0.00,FEW,,0.00,330.0,WeatherDisplay:10.37,2013-08-29 12:05:00,
2013-08-29 08:10:00,68.1,63.1,30.02,SE,132,0.5,2.3,84,0.00,FEW,,0.00,363.9,WeatherDisplay:10.37,2013-08-29 12:10:00,
2013-08-29 08:15:00,69.0,63.6,30.02,SE,132,1.2,3.5,83,0.00,FEW,,0.00,330.0,WeatherDisplay:10.37,2013-08-29 12:15:00,
2013-08-29 08:20:00,69.8,63.7,30.02,SE,132,0.9,3.5,81,0.00,BKN,,0.00,226.0,WeatherDisplay:10.37,2013-08-29 12:20:00,
2013-08-29 08:25:00,70.5,64.0,30.03,SE,132,0.2,1.2,80,0.00,FEW,,0.00,301.7,WeatherDisplay:10.37,2013-08-29 12:25:00,
2013-08-29 08:30:00,71.0,63.8,30.02,SE,132,1.9,3.5,78,0.00,SCT,,0.00,218.1,WeatherDisplay:10.37,2013-08-29 12:30:00,
2013-08-29 08:35:00,71.0,63.4,30.02,East,84,0.7,2.3,77,0.00,BKN,,0.00,206.8,WeatherDisplay:10.37,2013-08-29 12:35:00,
2013-08-29 08:40:00,70.6,63.4,30.03,East,82,2.3,4.0,78,0.00,BKN,,0.00,176.3,WeatherDisplay:10.37,2013-08-29 12:40:00,
2013-08-29 08:45:00,70.4,63.2,30.03,East,81,1.4,3.5,78,0.00,BKN,,0.00,162.7,WeatherDisplay:10.37,2013-08-29 12:45:00,
2013-08-29 08:50:00,70.3,63.1,30.03,East,96,1.7,3.5,78,0.00,BKN,,0.00,176.3,WeatherDisplay:10.37,2013-08-29 12:50:00,
2013-08-29 08:55:00,70.3,63.5,30.03,ESE,106,3.7,4.6,79,0.00,BKN,,0.00,217.0,WeatherDisplay:10.37,2013-08-29 12:55:00,
2013-08-29 09:00:00,70.4,63.6,30.03,ESE,113,3.4,5.8,79,0.00,SCT,,0.00,264.4,WeatherDisplay:10.37,2013-08-29 13:00:00,
2013-08-29 09:05:00,70.5,62.9,30.03,East,91,2.8,4.0,77,0.00,BKN,,0.00,193.2,WeatherDisplay:10.37,2013-08-29 13:05:00,
2013-08-29 09:10:00,70.4,63.6,30.03,East,93,1.7,5.8,79,0.00,BKN,,0.00,236.2,WeatherDisplay:10.37,2013-08-29 13:10:00,
2013-08-29 09:15:00,70.4,62.8,30.03,East,82,2.8,3.5,77,0.00,BKN,,0.00,232.8,WeatherDisplay:10.37,2013-08-29 13:15:00,
2013-08-29 09:20:00,70.4,63.2,30.03,ENE,78,3.3,3.5,78,0.00,BKN,,0.00,266.7,WeatherDisplay:10.37,2013-08-29 13:20:00,
2013-08-29 09:25:00,70.6,63.0,30.03,ENE,78,1.5,4.0,77,0.00,BKN,,0.00,315.3,WeatherDisplay:10.37,2013-08-29 13:25:00,
2013-08-29 09:30:00,70.9,63.3,30.03,East,80,1.2,2.3,77,0.00,SCT,,0.00,299.4,WeatherDisplay:10.37,2013-08-29 13:30:00,
2013-08-29 09:35:00,71.1,63.1,30.03,ENE,78,0.6,2.3,76,0.00,BKN,,0.00,293.8,WeatherDisplay:10.37,2013-08-29 13:35:00,
2013-08-29 09:40:00,71.4,64.5,30.03,ENE,78,0.2,3.5,79,0.00,BKN,,0.00,291.5,WeatherDisplay:10.37,2013-08-29 13:40:00,
2013-08-29 09:45:00,71.6,64.4,30.04,ENE,78,0.4,1.2,78,0.00,BKN,,0.00,259.9,WeatherDisplay:10.37,2013-08-29 13:45:00,
2013-08-29 09:50:00,71.8,63.8,30.04,ENE,78,0.1,1.2,76,0.00,BKN,,0.00,204.5,WeatherDisplay:10.37,2013-08-29 13:50:00,
2013-08-29 09:55:00,71.9,64.3,30.04,ENE,78,0.3,2.3,77,0.00,BKN,,0.00,212.4,WeatherDisplay:10.37,2013-08-29 13:55:00,
2013-08-29 10:00:00,72.0,64.0,30.04,ENE,78,0.0,0.0,76,0.00,BKN,,0.00,209.1,WeatherDisplay:10.37,2013-08-29 14:00:00,
2013-08-29 10:05:00,72.1,63.7,30.04,ENE,78,0.0,1.2,75,0.00,BKN,,0.00,240.7,WeatherDisplay:10.37,2013-08-29 14:05:00,
2013-08-29 10:10:00,72.2,64.6,30.04,ENE,78,0.7,2.3,77,0.00,BKN,,0.00,266.7,WeatherDisplay:10.37,2013-08-29 14:10:00,
2013-08-29 10:15:00,72.3,64.3,30.04,ENE,78,1.6,3.5,76,0.00,BKN,,0.00,307.4,WeatherDisplay:10.37,2013-08-29 14:15:00,
2013-08-29 10:20:00,72.3,63.5,30.04,East,82,2.3,3.5,74,0.00,BKN,,0.00,324.3,WeatherDisplay:10.37,2013-08-29 14:20:00,
2013-08-29 10:25:00,72.4,64.0,30.04,ESE,113,4.9,5.8,75,0.00,BKN,,0.00,353.7,WeatherDisplay:10.37,2013-08-29 14:25:00,
2013-08-29 10:30:00,72.4,64.4,30.04,ESE,113,1.4,4.6,76,0.00,BKN,,0.00,355.9,WeatherDisplay:10.37,2013-08-29 14:30:00,
2013-08-29 10:35:00,72.6,64.2,30.04,ESE,113,2.2,4.6,75,0.00,BKN,,0.00,363.9,WeatherDisplay:10.37,2013-08-29 14:35:00,
2013-08-29 10:40:00,72.8,64.4,30.04,ESE,114,0.1,0.0,75,0.00,BKN,,0.00,371.8,WeatherDisplay:10.37,2013-08-29 14:40:00,
2013-08-29 10:45:00,73.0,63.8,30.04,ESE,114,0.0,2.3,73,0.00,SCT,,0.00,417.0,WeatherDisplay:10.37,2013-08-29 14:45:00,
2013-08-29 10:50:00,73.0,63.8,30.04,ESE,114,0.6,1.2,73,0.00,BKN,,0.00,357.1,WeatherDisplay:10.37,2013-08-29 14:50:00,
2013-08-29 10:55:00,73.2,64.4,30.04,ESE,114,0.0,0.0,74,0.00,BKN,,0.00,372.9,WeatherDisplay:10.37,2013-08-29 14:55:00,
2013-08-29 11:00:00,73.4,65.0,30.04,ESE,114,0.0,0.0,75,0.00,BKN,,0.00,357.1,WeatherDisplay:10.37,2013-08-29 15:00:00,
2013-08-29 11:05:00,73.6,65.2,30.04,ESE,114,0.0,0.0,75,0.00,BKN,,0.00,375.2,WeatherDisplay:10.37,2013-08-29 15:05:00,
2013-08-29 11:10:00,73.7,65.3,30.04,ESE,114,0.1,0.0,75,0.00,BKN,,0.00,369.5,WeatherDisplay:10.37,2013-08-29 15:10:00,
2013-08-29 11:15:00,74.0,66.0,30.04,ESE,114,0.0,0.0,76,0.00,BKN,,0.00,324.3,WeatherDisplay:10.37,2013-08-29 15:15:00,
2013-08-29 11:20:00,74.2,64.6,30.04,ESE,114,0.0,1.2,72,0.00,BKN,,0.00,327.7,WeatherDisplay:10.37,2013-08-29 15:20:00,
2013-08-29 11:26:00,74.4,66.0,30.04,ESE,114,0.0,0.0,75,0.00,BKN,,0.00,274.6,WeatherDisplay:10.37,2013-08-29 15:26:00,
2013-08-29 11:31:00,74.4,64.4,30.04,ESE,114,0.0,0.0,71,0.00,BKN,,0.00,272.3,WeatherDisplay:10.37,2013-08-29 15:31:00,
2013-08-29 11:36:00,74.3,65.1,30.04,ESE,114,0.0,0.0,73,0.00,BKN,,0.00,278.0,WeatherDisplay:10.37,2013-08-29 15:36:00,
2013-08-29 11:41:00,74.3,64.7,30.04,ESE,114,0.0,0.0,72,0.00,BKN,,0.00,322.1,WeatherDisplay:10.37,2013-08-29 15:41:00,
2013-08-29 11:46:00,74.4,66.0,30.04,ESE,114,0.0,0.0,75,0.00,BKN,,0.00,348.0,WeatherDisplay:10.37,2013-08-29 15:46:00,
2013-08-29 11:51:00,74.5,64.5,30.04,ESE,114,0.0,0.0,71,0.00,BKN,,0.00,341.3,WeatherDisplay:10.37,2013-08-29 15:51:00,
2013-08-29 11:56:00,74.7,66.2,30.04,ESE,114,0.0,0.0,75,0.00,BKN,,0.00,398.9,WeatherDisplay:10.37,2013-08-29 15:56:00,
2013-08-29 12:01:00,74.8,64.8,30.04,ESE,114,0.1,0.0,71,0.00,BKN,,0.00,419.2,WeatherDisplay:10.37,2013-08-29 16:01:00,
2013-08-29 12:06:00,74.9,64.9,30.04,ESE,114,1.4,2.3,71,0.00,SCT,,0.00,466.7,WeatherDisplay:10.37,2013-08-29 16:06:00,
2013-08-29 12:11:00,75.0,66.1,30.04,ESE,114,0.0,2.3,74,0.00,SCT,,0.00,548.0,WeatherDisplay:10.37,2013-08-29 16:11:00,
2013-08-29 12:16:00,75.3,64.8,30.04,ESE,114,0.4,1.2,70,0.00,SCT,,0.00,649.8,WeatherDisplay:10.37,2013-08-29 16:16:00,
2013-08-29 12:21:00,75.8,66.5,30.03,ESE,114,0.4,2.3,73,0.00,FEW,,0.00,653.1,WeatherDisplay:10.37,2013-08-29 16:21:00,
2013-08-29 12:26:00,76.3,67.8,30.03,ESE,114,0.6,2.0,75,0.00,CLR,,0.00,872.4,WeatherDisplay:10.37,2013-08-29 16:26:00,
2013-08-29 12:31:00,77.0,65.6,30.03,ESE,114,3.2,3.5,68,0.00,CLR,,0.00,872.4,WeatherDisplay:10.37,2013-08-29 16:31:00,
2013-08-29 12:36:00,77.0,66.5,30.03,ESE,114,0.2,1.2,70,0.00,SCT,,0.00,401.1,WeatherDisplay:10.37,2013-08-29 16:36:00,
2013-08-29 12:41:00,76.7,65.3,30.03,ESE,114,0.0,1.2,68,0.00,BKN,,0.00,340.1,WeatherDisplay:10.37,2013-08-29 16:41:00,
2013-08-29 12:46:00,76.6,65.2,30.03,ESE,114,0.1,1.2,68,0.00,BKN,,0.00,403.4,WeatherDisplay:10.37,2013-08-29 16:46:00,
2013-08-29 12:51:00,76.5,66.0,30.03,ESE,114,0.0,1.2,70,0.00,BKN,,0.00,424.9,WeatherDisplay:10.37,2013-08-29 16:51:00,
2013-08-29 12:56:00,76.5,66.0,30.03,ESE,114,0.0,0.0,70,0.00,SCT,,0.00,466.7,WeatherDisplay:10.37,2013-08-29 16:56:00,
2013-08-29 13:01:00,76.7,66.6,30.03,ESE,114,0.0,0.0,71,0.00,SCT,,0.00,476.9,WeatherDisplay:10.37,2013-08-29 17:01:00,
2013-08-29 13:06:00,77.0,66.0,30.03,ESE,114,0.0,1.0,69,0.00,SCT,,0.00,582.0,WeatherDisplay:10.37,2013-08-29 17:06:00,
2013-08-29 13:11:00,77.1,66.1,30.03,ESE,114,0.1,1.2,69,0.00,SCT,,0.00,492.7,WeatherDisplay:10.37,2013-08-29 17:11:00,
2013-08-29 13:16:00,77.1,66.6,30.03,ESE,114,0.1,0.0,70,0.00,BKN,,0.00,307.4,WeatherDisplay:10.37,2013-08-29 17:16:00,
2013-08-29 13:21:00,76.6,66.5,30.03,ESE,114,0.0,0.0,71,0.00,BKN,,0.00,259.9,WeatherDisplay:10.37,2013-08-29 17:21:00,
2013-08-29 13:26:00,76.3,66.2,30.03,ESE,114,0.0,0.0,71,0.00,BKN,,0.00,246.3,WeatherDisplay:10.37,2013-08-29 17:26:00,
2013-08-29 13:31:00,76.2,66.9,30.03,ESE,114,0.0,0.0,73,0.00,BKN,,0.00,240.7,WeatherDisplay:10.37,2013-08-29 17:31:00,
2013-08-29 13:36:00,76.2,67.3,30.03,ESE,114,0.0,0.0,74,0.00,BKN,,0.00,317.5,WeatherDisplay:10.37,2013-08-29 17:36:00,
2013-08-29 13:41:00,76.2,67.3,30.03,ESE,114,0.0,0.0,74,0.00,BKN,,0.00,413.6,WeatherDisplay:10.37,2013-08-29 17:41:00,
2013-08-29 13:46:00,76.5,68.0,30.03,ESE,114,0.0,1.0,75,0.00,SCT,,0.00,537.9,WeatherDisplay:10.37,2013-08-29 17:46:00,
2013-08-29 13:51:00,76.8,67.9,30.02,ESE,114,0.0,0.0,74,0.00,SCT,,0.00,770.7,WeatherDisplay:10.37,2013-08-29 17:51:00,
2013-08-29 13:56:00,77.1,67.4,30.02,ESE,114,0.8,2.0,72,0.00,FEW,,0.00,669.0,WeatherDisplay:10.37,2013-08-29 17:56:00,
2013-08-29 14:01:00,77.4,66.8,30.02,ESE,114,0.0,1.2,70,0.00,SCT,,0.00,437.3,WeatherDisplay:10.37,2013-08-29 18:01:00,
2013-08-29 14:06:00,77.4,67.3,30.02,ESE,114,0.0,1.2,71,0.00,BKN,,0.00,301.7,WeatherDisplay:10.37,2013-08-29 18:06:00,
2013-08-29 14:11:00,77.0,67.3,30.02,ESE,114,0.0,0.0,72,0.00,BKN,,0.00,353.7,WeatherDisplay:10.37,2013-08-29 18:11:00,
2013-08-29 14:16:00,76.9,67.6,30.02,ESE,114,0.2,2.3,73,0.00,BKN,,0.00,411.3,WeatherDisplay:10.37,2013-08-29 18:16:00,
2013-08-29 14:21:00,77.2,67.9,30.02,ESE,114,0.0,1.2,73,0.00,BKN,,0.00,375.2,WeatherDisplay:10.37,2013-08-29 18:21:00,
2013-08-29 14:26:00,77.5,66.9,30.02,ESE,114,0.0,1.2,70,0.00,BKN,,0.00,322.1,WeatherDisplay:10.37,2013-08-29 18:26:00,
2013-08-29 14:31:00,77.7,67.5,30.02,ESE,114,0.1,1.2,71,0.00,BKN,,0.00,288.1,WeatherDisplay:10.37,2013-08-29 18:31:00,
2013-08-29 14:36:00,77.6,67.0,30.02,ESE,114,0.0,0.0,70,0.00,BKN,,0.00,267.8,WeatherDisplay:10.37,2013-08-29 18:36:00,
2013-08-29 14:41:00,77.7,66.3,30.01,ESE,114,0.0,0.0,68,0.00,BKN,,0.00,314.1,WeatherDisplay:10.37,2013-08-29 18:41:00,
2013-08-29 14:46:00,77.9,66.1,30.01,ESE,114,0.0,0.0,67,0.00,BKN,,0.00,383.1,WeatherDisplay:10.37,2013-08-29 18:46:00,
2013-08-29 14:51:00,78.1,66.2,30.01,ESE,114,0.1,1.2,67,0.00,SCT,,0.00,482.5,WeatherDisplay:10.37,2013-08-29 18:51:00,
2013-08-29 14:56:00,77.9,65.6,30.01,ESE,114,0.0,0.0,66,0.00,SCT,,0.00,387.6,WeatherDisplay:10.37,2013-08-29 18:56:00,
2013-08-29 15:01:00,77.8,66.8,30.01,ESE,114,0.3,3.5,69,0.00,BKN,,0.00,337.9,WeatherDisplay:10.37,2013-08-29 19:01:00,
2013-08-29 15:06:00,77.9,67.3,30.01,ESE,118,1.3,2.3,70,0.00,BKN,,0.00,349.2,WeatherDisplay:10.37,2013-08-29 19:06:00,
2013-08-29 15:11:00,78.0,67.4,30.01,ESE,118,0.0,0.0,70,0.00,SCT,,0.00,409.1,WeatherDisplay:10.37,2013-08-29 19:11:00,
2013-08-29 15:16:00,78.2,67.6,30.01,ESE,118,0.1,3.5,70,0.00,SCT,,0.00,520.9,WeatherDisplay:10.37,2013-08-29 19:16:00,
2013-08-29 15:22:00,78.6,66.7,30.01,ESE,118,0.4,4.0,67,0.00,FEW,,0.00,760.5,WeatherDisplay:10.37,2013-08-29 19:22:00,
2013-08-29 15:27:00,79.1,66.8,30.00,ESE,118,0.1,1.2,66,0.00,FEW,,0.00,695.0,WeatherDisplay:10.37,2013-08-29 19:27:00,
2013-08-29 15:32:00,79.6,68.1,30.00,ESE,118,0.0,0.0,68,0.00,FEW,,0.00,840.7,WeatherDisplay:10.37,2013-08-29 19:32:00,
2013-08-29 15:37:00,79.8,67.4,30.00,ESE,118,0.3,1.2,66,0.00,CLR,,0.00,770.7,WeatherDisplay:10.37,2013-08-29 19:37:00,
2013-08-29 15:42:00,79.7,66.0,30.00,ESE,118,0.1,0.0,63,0.00,CLR,,0.00,733.4,WeatherDisplay:10.37,2013-08-29 19:42:00,
2013-08-29 15:47:00,79.8,66.1,30.00,ESE,118,0.1,1.2,63,0.00,CLR,,0.00,728.9,WeatherDisplay:10.37,2013-08-29 19:47:00,
2013-08-29 15:52:00,80.2,66.9,30.00,ESE,118,0.5,2.0,64,0.00,CLR,,0.00,754.8,WeatherDisplay:10.37,2013-08-29 19:52:00,
2013-08-29 15:57:00,80.7,67.4,30.00,ESE,118,0.5,2.0,64,0.00,CLR,,0.00,772.9,WeatherDisplay:10.37,2013-08-29 19:57:00,
2013-08-29 16:02:00,80.9,68.0,30.00,ESE,119,0.0,1.2,65,0.00,CLR,,0.00,838.5,WeatherDisplay:10.37,2013-08-29 20:02:00,
2013-08-29 16:07:00,81.0,68.6,30.00,ESE,121,0.3,3.5,66,0.00,CLR,,0.00,798.9,WeatherDisplay:10.37,2013-08-29 20:07:00,
2013-08-29 16:12:00,81.0,67.7,29.99,ESE,121,0.3,3.5,64,0.00,CLR,,0.00,778.6,WeatherDisplay:10.37,2013-08-29 20:12:00,
2013-08-29 16:17:00,80.8,67.5,30.00,ESE,121,0.8,1.2,64,0.00,CLR,,0.00,734.5,WeatherDisplay:10.37,2013-08-29 20:17:00,
2013-08-29 16:22:00,80.9,67.1,29.99,South,171,0.2,4.6,63,0.00,CLR,,0.00,733.4,WeatherDisplay:10.37,2013-08-29 20:22:00,
2013-08-29 16:27:00,81.2,68.3,29.99,South,178,1.8,3.5,65,0.00,CLR,,0.00,713.0,WeatherDisplay:10.37,2013-08-29 20:27:00,
2013-08-29 16:32:00,81.4,68.1,29.99,South,177,0.5,1.2,64,0.00,CLR,,0.00,639.6,WeatherDisplay:10.37,2013-08-29 20:32:00,
2013-08-29 16:37:00,81.4,68.1,29.99,South,177,0.8,2.3,64,0.00,CLR,,0.00,644.1,WeatherDisplay:10.37,2013-08-29 20:37:00,
2013-08-29 16:42:00,80.6,66.8,29.99,South,178,0.0,1.2,63,0.00,BKN,,0.00,230.5,WeatherDisplay:10.37,2013-08-29 20:42:00,
2013-08-29 16:47:00,79.8,66.5,29.99,SSE,161,0.8,2.3,64,0.00,FEW,,0.00,136.7,WeatherDisplay:10.37,2013-08-29 20:47:00,
2013-08-29 16:52:00,78.9,67.0,29.99,SSE,159,0.8,2.3,67,0.00,BKN,,0.00,141.3,WeatherDisplay:10.37,2013-08-29 20:52:00,
2013-08-29 16:57:00,78.2,66.8,29.99,SSE,157,0.8,3.5,68,0.00,SCT,,0.00,136.7,WeatherDisplay:10.37,2013-08-29 20:57:00,
2013-08-29 17:02:00,77.8,66.8,29.99,SSE,155,0.4,2.3,69,0.00,SCT,,0.00,246.3,WeatherDisplay:10.37,2013-08-29 21:02:00,
2013-08-29 17:07:00,77.8,67.6,29.99,SSE,155,0.8,2.3,71,0.00,CLR,,0.00,453.1,WeatherDisplay:10.37,2013-08-29 21:07:00,
2013-08-29 17:12:00,78.0,67.0,29.99,SE,126,2.6,5.0,69,0.00,CLR,,0.00,409.1,WeatherDisplay:10.37,2013-08-29 21:12:00,
2013-08-29 17:17:00,78.1,66.7,29.99,ESE,119,1.3,2.3,68,0.00,CLR,,0.00,393.2,WeatherDisplay:10.37,2013-08-29 21:17:00,
2013-08-29 17:22:00,78.3,67.3,29.99,ESE,116,0.0,0.0,69,0.00,CLR,,0.00,395.5,WeatherDisplay:10.37,2013-08-29 21:22:00,
2013-08-29 17:27:00,78.7,68.5,29.99,ESE,116,1.1,2.3,71,0.00,CLR,,0.00,383.1,WeatherDisplay:10.37,2013-08-29 21:27:00,
2013-08-29 17:32:00,79.3,67.8,29.99,ESE,116,0.0,0.0,68,0.00,CLR,,0.00,393.2,WeatherDisplay:10.37,2013-08-29 21:32:00,
2013-08-29 17:37:00,79.8,67.4,30.00,ESE,116,0.0,1.2,66,0.00,CLR,,0.00,398.9,WeatherDisplay:10.37,2013-08-29 21:37:00,
2013-08-29 17:42:00,80.0,66.7,30.00,ESE,116,0.0,0.0,64,0.00,CLR,,0.00,377.4,WeatherDisplay:10.37,2013-08-29 21:42:00,
2013-08-29 17:47:00,80.3,67.5,29.99,ESE,116,0.1,1.2,65,0.00,CLR,,0.00,355.9,WeatherDisplay:10.37,2013-08-29 21:47:00,
2013-08-29 17:52:00,80.3,67.0,29.99,ESE,116,0.0,0.0,64,0.00,CLR,,0.00,133.3,WeatherDisplay:10.37,2013-08-29 21:52:00,
2013-08-29 17:57:00,80.0,67.6,29.99,ESE,116,1.1,3.5,66,0.00,SCT,,0.00,107.3,WeatherDisplay:10.37,2013-08-29 21:57:00,
2013-08-29 18:02:00,79.5,67.6,29.99,ESE,116,0.0,0.0,67,0.00,BKN,,0.00,91.5,WeatherDisplay:10.37,2013-08-29 22:02:00,
2013-08-29 18:07:00,79.0,67.5,29.99,ESE,116,0.0,0.0,68,0.00,BKN,,0.00,78.0,WeatherDisplay:10.37,2013-08-29 22:07:00,
2013-08-29 18:12:00,78.4,67.8,29.99,ESE,116,0.0,0.0,70,0.00,BKN,,0.00,63.3,WeatherDisplay:10.37,2013-08-29 22:12:00,
2013-08-29 18:17:00,77.7,66.7,29.99,ESE,116,0.0,0.0,69,0.00,BKN,,0.00,45.2,WeatherDisplay:10.37,2013-08-29 22:17:00,
2013-08-29 18:22:00,77.1,67.0,29.99,ESE,116,0.0,1.2,71,0.00,BKN,,0.00,29.4,WeatherDisplay:10.37,2013-08-29 22:22:00,
2013-08-29 18:27:00,76.6,66.9,29.99,ESE,116,0.0,0.0,72,0.00,BKN,,0.00,26.0,WeatherDisplay:10.37,2013-08-29 22:27:00,
2013-08-29 18:32:00,75.9,66.2,29.99,ESE,116,0.0,0.0,72,0.00,BKN,,0.00,31.6,WeatherDisplay:10.37,2013-08-29 22:32:00,
2013-08-29 18:37:00,75.6,66.3,29.99,ESE,116,0.0,1.2,73,0.00,BKN,,0.00,37.3,WeatherDisplay:10.37,2013-08-29 22:37:00,
2013-08-29 18:42:00,75.3,66.0,29.99,ESE,116,1.2,3.5,73,0.00,BKN,,0.00,39.5,WeatherDisplay:10.37,2013-08-29 22:42:00,
2013-08-29 18:47:00,75.0,65.8,29.99,ESE,116,1.4,3.5,73,0.00,BKN,,0.00,37.3,WeatherDisplay:10.37,2013-08-29 22:47:00,
2013-08-29 18:52:00,74.7,65.9,29.99,ESE,116,2.0,4.0,74,0.00,BKN,,0.00,31.6,WeatherDisplay:10.37,2013-08-29 22:52:00,
2013-08-29 18:57:00,74.4,65.6,29.99,ESE,116,0.0,0.0,74,0.00,BKN,,0.00,26.0,WeatherDisplay:10.37,2013-08-29 22:57:00,
2013-08-29 19:02:00,74.2,65.4,29.99,ESE,116,0.5,1.2,74,0.00,BKN,,0.00,23.7,WeatherDisplay:10.37,2013-08-29 23:02:00,
2013-08-29 19:07:00,74.0,65.2,29.99,ESE,117,2.5,4.6,74,0.00,BKN,,0.00,20.3,WeatherDisplay:10.37,2013-08-29 23:07:00,
2013-08-29 19:12:00,73.7,64.9,29.99,ESE,117,0.0,2.3,74,0.00,BKN,,0.00,15.8,WeatherDisplay:10.37,2013-08-29 23:12:00,
2013-08-29 19:17:00,73.5,64.7,29.99,ESE,117,1.1,1.2,74,0.00,BKN,,0.00,10.2,WeatherDisplay:10.37,2013-08-29 23:17:00,
2013-08-29 19:22:00,73.3,64.9,29.99,ESE,117,0.0,1.2,75,0.00,BKN,,0.00,5.7,WeatherDisplay:10.37,2013-08-29 23:22:00,
2013-08-29 19:27:00,73.1,64.7,30.00,ESE,117,0.0,0.0,75,0.00,BKN,,0.00,0.0,WeatherDisplay:10.37,2013-08-29 23:27:00,
2013-08-29 19:32:00,72.9,64.9,30.00,ESE,117,0.1,3.5,76,0.00,BKN,,0.00,0.0,WeatherDisplay:10.37,2013-08-29 23:32:00,
2013-08-29 19:37:00,72.6,65.0,30.00,ESE,117,0.1,0.0,77,0.00,BKN,,0.00,0.0,WeatherDisplay:10.37,2013-08-29 23:37:00,
2013-08-29 19:42:00,72.3,64.7,30.00,ESE,117,0.0,0.0,77,0.00,BKN,,0.00,0.0,WeatherDisplay:10.37,2013-08-29 23:42:00,
2013-08-29 19:47:00,72.1,64.9,30.00,ESE,117,1.1,1.2,78,0.00,BKN,,0.00,0.0,WeatherDisplay:10.37,2013-08-29 23:47:00,
2013-08-29 19:52:00,71.8,64.6,30.00,ESE,117,1.8,4.6,78,0.00,BKN,,0.00,0.0,WeatherDisplay:10.37,2013-08-29 23:52:00,
2013-08-29 19:57:00,71.5,64.6,30.00,ESE,117,0.1,1.2,79,0.00,BKN,,0.00,0.0,WeatherDisplay:10.37,2013-08-29 23:57:00,
2013-08-29 20:02:00,71.3,64.8,30.00,ESE,117,0.3,1.2,80,0.00,BKN,,0.00,0.0,WeatherDisplay:10.37,2013-08-30 00:02:00,
2013-08-29 20:07:00,71.1,64.6,30.00,ESE,117,1.3,4.0,80,0.00,BKN,,0.00,0.0,WeatherDisplay:10.37,2013-08-30 00:07:00,
2013-08-29 20:12:00,70.8,64.3,30.00,ESE,117,3.0,3.5,80,0.00,BKN,,0.00,0.0,WeatherDisplay:10.37,2013-08-30 00:12:00,
2013-08-29 20:17:00,70.5,64.0,30.00,ESE,117,0.0,0.0,80,0.00,BKN,,0.00,0.0,WeatherDisplay:10.37,2013-08-30 00:17:00,
2013-08-29 20:22:00,70.3,64.2,30.01,ESE,117,0.6,2.3,81,0.00,BKN,,0.00,0.0,WeatherDisplay:10.37,2013-08-30 00:22:00,
2013-08-29 20:27:00,70.1,64.0,30.01,ESE,117,0.1,1.2,81,0.00,BKN,,0.00,0.0,WeatherDisplay:10.37,2013-08-30 00:27:00,
2013-08-29 20:32:00,69.9,63.8,30.02,ESE,117,0.3,4.6,81,0.00,BKN,,0.00,0.0,WeatherDisplay:10.37,2013-08-30 00:32:00,
2013-08-29 20:37:00,69.8,63.7,30.02,ESE,118,1.2,2.3,81,0.00,BKN,,0.00,0.0,WeatherDisplay:10.37,2013-08-30 00:37:00,
2013-08-29 20:43:00,69.7,63.6,30.01,ESE,118,0.1,1.2,81,0.00,BKN,,0.00,0.0,WeatherDisplay:10.37,2013-08-30 00:43:00,
2013-08-29 20:47:00,69.5,63.4,30.02,ESE,118,0.0,2.3,81,0.00,BKN,,0.00,0.0,WeatherDisplay:10.37,2013-08-30 00:47:00,
2013-08-29 20:53:00,69.3,63.2,30.02,ESE,118,0.1,2.3,81,0.00,BKN,,0.00,0.0,WeatherDisplay:10.37,2013-08-30 00:53:00,
2013-08-29 20:58:00,69.2,63.5,30.02,ESE,118,0.4,3.5,82,0.00,BKN,,0.00,0.0,WeatherDisplay:10.37,2013-08-30 00:58:00,
2013-08-29 21:02:00,69.0,63.3,30.01,ESE,118,0.5,1.2,82,0.00,BKN,,0.00,0.0,WeatherDisplay:10.37,2013-08-30 01:02:00,
2013-08-29 21:08:00,68.8,63.1,30.01,ESE,118,0.6,2.3,82,0.00,BKN,,0.00,0.0,WeatherDisplay:10.37,2013-08-30 01:08:00,
2013-08-29 21:13:00,68.7,63.3,30.01,ESE,118,0.3,2.0,83,0.00,BKN,,0.00,0.0,WeatherDisplay:10.37,2013-08-30 01:13:00,
2013-08-29 21:18:00,68.6,63.2,30.01,ESE,122,0.4,4.6,83,0.00,BKN,,0.00,0.0,WeatherDisplay:10.37,2013-08-30 01:18:00,
2013-08-29 21:23:00,68.5,63.1,30.01,SE,129,1.7,3.5,83,0.00,BKN,,0.00,0.0,WeatherDisplay:10.37,2013-08-30 01:23:00,
2013-08-29 21:28:00,68.4,63.0,30.01,SE,128,0.7,3.5,83,0.00,BKN,,0.00,0.0,WeatherDisplay:10.37,2013-08-30 01:28:00,
2013-08-29 21:33:00,68.3,62.9,30.01,SE,128,0.1,1.2,83,0.00,BKN,,0.00,0.0,WeatherDisplay:10.37,2013-08-30 01:33:00,
2013-08-29 21:38:00,68.1,62.7,30.01,SE,128,0.1,1.2,83,0.00,BKN,,0.00,0.0,WeatherDisplay:10.37,2013-08-30 01:38:00,
2013-08-29 21:43:00,68.0,62.6,30.01,SE,128,1.4,4.0,83,0.00,BKN,,0.00,0.0,WeatherDisplay:10.37,2013-08-30 01:43:00,
2013-08-29 21:48:00,67.9,62.9,30.01,SE,128,0.1,1.2,84,0.00,BKN,,0.00,0.0,WeatherDisplay:10.37,2013-08-30 01:48:00,
2013-08-29 21:53:00,67.7,62.7,30.01,SE,128,0.0,1.2,84,0.00,BKN,,0.00,0.0,WeatherDisplay:10.37,2013-08-30 01:53:00,
2013-08-29 21:58:00,67.5,62.5,30.01,SE,129,1.0,1.2,84,0.00,BKN,,0.00,0.0,WeatherDisplay:10.37,2013-08-30 01:58:00,
2013-08-29 22:03:00,67.4,62.4,30.01,SE,130,0.0,0.0,84,0.00,BKN,,0.00,0.0,WeatherDisplay:10.37,2013-08-30 02:03:00,
2013-08-29 22:08:00,67.3,62.3,30.01,SE,130,0.0,0.0,84,0.00,BKN,,0.00,0.0,WeatherDisplay:10.37,2013-08-30 02:08:00,
2013-08-29 22:13:00,67.2,62.2,30.01,SE,130,0.0,1.2,84,0.00,BKN,,0.00,0.0,WeatherDisplay:10.37,2013-08-30 02:13:00,
2013-08-29 22:18:00,67.1,62.1,30.01,SE,130,0.0,0.0,84,0.00,BKN,,0.00,0.0,WeatherDisplay:10.37,2013-08-30 02:18:00,
2013-08-29 22:23:00,67.0,62.0,30.01,SE,130,0.0,1.2,84,0.00,BKN,,0.00,0.0,WeatherDisplay:10.37,2013-08-30 02:23:00,
2013-08-29 22:28:00,67.0,62.3,30.00,SE,130,0.0,0.0,85,0.00,BKN,,0.00,0.0,WeatherDisplay:10.37,2013-08-30 02:28:00,
2013-08-29 22:33:00,67.0,62.3,30.01,SE,130,0.0,0.0,85,0.00,BKN,,0.00,0.0,WeatherDisplay:10.37,2013-08-30 02:33:00,
2013-08-29 22:38:00,67.0,62.0,30.01,SE,130,1.9,3.5,84,0.00,BKN,,0.00,0.0,WeatherDisplay:10.37,2013-08-30 02:38:00,
2013-08-29 22:43:00,67.0,62.3,30.01,SE,130,0.1,1.2,85,0.00,BKN,,0.00,0.0,WeatherDisplay:10.37,2013-08-30 02:43:00,
2013-08-29 22:48:00,67.0,62.3,30.01,SE,130,0.0,0.0,85,0.00,BKN,,0.00,0.0,WeatherDisplay:10.37,2013-08-30 02:48:00,
2013-08-29 22:53:00,67.0,62.3,30.00,SE,130,0.0,0.0,85,0.00,BKN,,0.00,0.0,WeatherDisplay:10.37,2013-08-30 02:53:00,
2013-08-29 22:58:00,66.9,62.2,30.00,SE,130,0.1,1.2,85,0.00,BKN,,0.00,0.0,WeatherDisplay:10.37,2013-08-30 02:58:00,
2013-08-29 23:03:00,66.8,62.1,30.00,SE,130,0.7,2.3,85,0.00,BKN,,0.00,0.0,WeatherDisplay:10.37,2013-08-30 03:03:00,
2013-08-29 23:08:00,66.8,62.1,30.00,SE,130,0.0,0.0,85,0.00,BKN,,0.00,0.0,WeatherDisplay:10.37,2013-08-30 03:08:00,
2013-08-29 23:13:00,66.8,62.1,30.00,SE,130,0.0,1.0,85,0.00,BKN,,0.00,0.0,WeatherDisplay:10.37,2013-08-30 03:13:00,
2013-08-29 23:18:00,66.7,62.0,30.00,SE,133,0.1,3.5,85,0.00,BKN,,0.00,0.0,WeatherDisplay:10.37,2013-08-30 03:18:00,
2013-08-29 23:23:00,66.6,61.9,30.00,SE,135,1.3,4.6,85,0.00,BKN,,0.00,0.0,WeatherDisplay:10.37,2013-08-30 03:23:00,
2013-08-29 23:28:00,66.6,61.9,30.00,SE,134,3.0,3.5,85,0.00,BKN,,0.00,0.0,WeatherDisplay:10.37,2013-08-30 03:28:00,
2013-08-29 23:33:00,66.4,61.8,30.00,SE,132,0.0,1.2,85,0.00,BKN,,0.00,0.0,WeatherDisplay:10.37,2013-08-30 03:33:00,
2013-08-29 23:38:00,66.2,61.9,30.00,SE,132,0.0,1.2,86,0.00,BKN,,0.00,0.0,WeatherDisplay:10.37,2013-08-30 03:38:00,
2013-08-29 23:43:00,66.1,61.8,30.00,SE,132,0.1,2.3,86,0.00,BKN,,0.00,0.0,WeatherDisplay:10.37,2013-08-30 03:43:00,
2013-08-29 23:48:00,66.2,62.2,30.00,SE,132,0.0,1.2,87,0.00,BKN,,0.00,0.0,WeatherDisplay:10.37,2013-08-30 03:48:00,
2013-08-29 23:53:00,66.1,62.1,30.01,SE,132,0.0,0.0,87,0.00,BKN,,0.00,0.0,WeatherDisplay:10.37,2013-08-30 03:53:00,
2013-08-29 23:58:00,66.1,62.1,30.01,SE,132,0.0,0.0,87,0.00,BKN,,0.00,0.0,WeatherDisplay:10.37,2013-08-30 03:58:00,